Tracking 22879 objects as of 22-Apr-2021
HD Live streaming from Space Station
objects crossing your sky now

CZ-2D DEB

Track CZ-2D DEB now!
10-day predictions


NORAD ID: 45801
Int'l Code: 2020-039E
Perigee: 498.6 km
Apogee: 528.4 km
Inclination: 97.5 °
Period: 94.7 minutes
Semi major axis: 6884 km
RCS: Unknown
Launch date: June 17, 2020
Source: People's Republic of China (PRC)
Launch site: Jiuquan Satellite Launch Center, China (JSC)

Note: This is SATELLITE DEBRIS
aabbcc
Your satellite tracking list
Your tracking list is empty




NASA's NSSDC Master Catalog

Two Line Element Set (TLE):
1 45801U 20039E   21111.60977863  .00005602  00000-0  26312-3 0  9994
2 45801  97.4738 235.2224 0021620 152.0088 208.2345 15.19816671 46721
Source of the keplerian elements: AFSPC